SCP
0 0 0 0 0 0 0 0 0 0 0 0 0 0 0 0 0 0 0 0 0 0 0 0 0 0 0 0 0 0 0 0 0 0 -0 -0 -0 -0 0 0 -0 0 -0 0 0 0 0
0 0 0 0 0 0 0 0 0 0 0 0 -0 0 0 0 0 0 0 0 0 0 0 0 0 0 0 0 0 0 0 0 0 0 -0 -0 -0 -0 0 -0 -0 -0 0 -0 0 0 0
0 0 0 0 0 0 0 0 0 0 0 0 0 0 0 0 -0 -0 0 0 0 0 0 0 0 0 0 0 0 0 0 0 0 0 -0 0 0 -0 0 0 0 0 0 0 0 0 0
0 0 0 0 0 0 0 0 -0 -0 -0 -0 0 0 0 0 0 0 0 -0 0 0 0 0 0 0 0 0 0 -0 0 0 -0 0 0 0 0 0 0 -0 0 0 0 0 0 0 0
0 0 0 0 0 0 0 0 -0 -0 -0 -0 -0 -0 0 0 0 0 0 0 0 0 -0 0 0 0 -0 0 0 0 0 0 -0 0 0 0 0 0 0 0 -0 -0 0 0 -0 -0 0
0 0 0 0 0 0 0 0 -0 -0 -0 -0 -0 -0 -0 -0 -0 0 0 -0 -0 -0 -0 0 0 -0 -0 0 0 -0 -0 0 0 -0 0 0 -0 -0 0 -0 0 -0 -0 0 0 0 0
0 0 0 0 0 0 0 0 0 0 -0 -0 -0 -0 -0 -0 -0 0 -0 -0 0 -0 0 0 0 -0 -0 -0 0 -0 -0 0 0 0 0 0 0 -0 -0 -0 -0 0 0 0 -0 0 0
0 0 0 0 0 0 0 0 0 0 0 0 -0 -0 -0 -0 -0 0 -0 -0 0 0 0 -0 -0 -0 -0 -0 0 0 -0 -0 -0 -0 -0 -0 -0 -0 -0 0 0 0 0 0 0 0 0
0 0 0 0 0 0 -0 -0 -0 -0 -0 -0 -0 -0 -0 -0 -0 0 0 -0 -0 -0 0 -0 -0 -0 -0 0 -0 -0 -0 -0 -0 -0 -0 -0 0 0 0 0 0 0 0 0 0 0 0
0 0 0 0 0 0 -0 -0 -0 -0 -0 -0 -0 -0 -0 -0 -0 -0 -0 -0 -0 -0 0 -0 -0 -0 -0 0 0 -0 -0 -0 -0 0 0 0 0 0 0 0 0 0 0 0 0 0 0
0 0 0 0 0 0 0 -0 -0 -0 -0 -0 -0 -0 -0 0 0 -0 -0 -0 -0 0 0 0 -0 -0 0 -0 -0 -0 -0 0 0 0 0 0 0 0 0 0 0 0 0 0 0 0 0
0 0 0 0 0 0 0 0 -0 -0 -0 -0 -0 -0 -0 0 0 -0 0 -0 0 0 -0 -0 0 0 -0 0 0 -0 -0 0 0 0 0 0 0 0 0 0 0 0 0 0 0 0 0
0 0 0 0 0 0 0 0 -0 -0 -0 -0 -0 0 0 0 0 0 0 0 0 0 0 0 0 0 0 0 0 0 0 0 0 0 0 0 0 0 0 0 0 0 0 0 0 0 0
0 0 0 0 0 0 0 -0 -0 -0 -0 -0 -0 -0 0 0 0 0 0 0 0 0 0 -0 0 0 0 0 0 -0 0 0 0 0 0 0 0 0 0 0 0 0 0 0 0 0 0
0 0 0 0 0 0 0 -0 -0 -0 -0 -0 -0 0 0 0 0 0 0 0 0 -0 0 0 0 0 0 0 0 0 0 0 0 0 0 0 0 0 0 0 0 0 0 0 0 0 0
0 0 0 0 0 0 0 0 -0 -0 -0 -0 0 0 0 -0 0 0 0 0 0 0 0 0 0 0 0 0 0 0 0 0 0 0 0 0 0 0 0 0 0 0 0 0 0 0 0
0 0 0 0 0 0 0 0 0 -0 -0 -0 -0 0 0 0 0 0 0 0 0 0 0 0 0 0 0 0 0 0 0 -0 0 0 0 0 0 0 0 0 0 0 0 0 0 0 0
0 0 0 0 0 0 0 0 0 -0 -0 -0 0 0 0 0 0 0 0 0 0 0 0 0 -0 -0 0 0 0 0 0 0 0 0 0 0 0 0 0 0 0 0 0 0 0 0 0
0 0 0 0 0 0 0 0 0 0 -0 -0 0 0 -0 0 0 0 0 0 0 -0 0 0 0 0 0 0 0 0 0 0 0 0 0 0 0 0 0 0 0 0 0 0 0 0 0
0 0 0 0 0 0 0 0 0 0 0 -0 0 0 0 0 0 0 0 0 0 0 -0 0 0 0 0 0 0 0 0 0 0 0 0 0 0 0 0 0 0 0 0 0 0 0 0
0 0 0 0 0 0 0 0 0 -0 -0 0 0 0 0 0 0 0 0 0 0 0 0 0 0 0 0 0 0 0 0 0 0 0 0 0 0 0 0 0 0 0 0 0 0 0 0
0 0 0 0 0 0 0 0 -0 -0 -0 0 0 0 0 0 0 0 0 0 0 0 0 0 0 0 0 0 0 0 0 0 0 0 0 0 0 0 0 0 0 0 0 0 0 0 0
0 0 0 0 0 0 0 0 0 0 0 0 0 0 0 0 0 0 0 0 0 0 0 0 0 0 0 0 0 0 0 0 0 0 0 0 0 0 0 0 0 0 0 0 0 0 0
0 0 0 0 0 0 0 0 -0 0 0 0 0 0 0 0 0 0 0 0 0 0 0 0 0 0 0 0 0 0 0 0 0 0 0 0 0 0 0 0 0 0 0 0 0 0 0
0 0 0 0 -0 -0 -0 -0 -0 0 0 0 0 0 0 0 0 0 0 0 0 0 0 0 0 0 0 0 0 0 0 0 0 0 0 0 0 0 0 0 0 0 0 0 0 0 0
0 0 0 -0 -0 -0 -0 -0 -0 -0 0 0 0 0 0 0 0 -0 0 0 0 0 0 0 0 0 0 0 0 0 0 0 0 0 0 0 0 0 0 0 0 0 0 0 0 0 0
0 0 0 -0 -0 -0 -0 -0 -0 -0 -0 0 0 0 0 0 0 -0 0 0 0 0 0 0 0 0 0 0 0 0 0 0 0 0 0 0 0 0 0 0 0 0 0 0 0 0 0
0 0 -0 -0 -0 -0 -0 -0 -0 -0 -0 0 0 0 0 0 -0 0 -0 0 0 0 0 0 0 0 0 0 0 0 0 0 0 0 0 0 0 0 0 0 0 0 0 0 0 0 0
0 -0 -0 -0 -0 -0 -0 -0 -0 -0 -0 0 0 0 -0 -0 0 -0 -0 -0 0 0 0 0 0 0 0 0 0 0 0 0 0 0 0 0 0 0 0 0 0 0 0 0 0 0 0
Wind_Speed_500mb
47 49 50 50 49 49 48 46 45 43 42 42 42 39 35 31 27 24 22 20 20 21 23 23 22 22 23 19 39 25 12 8 16 25 39 30 31 39 18 20 36 17 22 56 64 56 17
50 51 52 52 53 52 52 50 48 46 43 41 40 39 35 30 26 23 21 18 18 19 21 22 21 21 21 17 8 7 15 14 19 32 39 30 34 41 43 35 15 32 48 48 48 36 22
52 53 55 56 57 57 57 56 54 51 47 43 39 37 35 31 26 23 20 19 19 19 19 20 20 22 29 49 18 9 17 14 18 40 26 20 40 38 40 15 39 33 9 12 11 36 16
55 56 56 58 59 60 60 59 58 56 52 46 40 36 34 32 26 22 20 19 18 19 19 20 22 23 24 8 29 26 3 14 15 13 23 25 30 27 19 28 35 11 8 8 17 20 17
56 57 58 59 60 62 63 62 60 59 56 51 45 37 32 30 28 24 21 20 20 21 23 19 12 12 25 14 27 43 18 30 31 27 24 16 7 17 27 9 13 10 14 20 22 26 14
57 58 59 61 62 63 63 64 62 61 59 56 50 40 32 28 26 25 24 23 24 22 14 8 14 12 34 34 28 33 27 31 29 23 26 18 11 7 10 3 15 14 18 18 17 10 13
58 59 60 61 63 64 64 64 64 62 60 58 52 44 33 29 27 27 26 24 11 9 25 30 23 30 15 30 30 28 30 28 31 32 16 34 8 17 29 28 21 13 18 10 24 14 10
58 59 59 61 62 64 65 66 66 64 62 60 55 47 37 30 29 29 31 24 26 26 27 35 53 52 56 25 33 34 36 28 25 17 18 8 20 34 27 7 11 16 12 15 19 14 12
59 60 60 61 62 63 66 68 67 66 66 62 58 49 38 31 30 32 31 35 22 15 22 53 50 50 58 42 31 42 43 48 17 20 23 19 15 12 14 11 8 5 12 16 8 14 6
60 61 62 63 63 64 65 68 69 68 66 65 59 53 39 30 28 25 33 7 25 19 9 14 44 59 53 33 20 52 47 47 19 31 27 14 17 11 4 10 5 6 17 18 18 13 1
61 62 63 64 66 66 66 68 70 71 69 67 62 57 40 28 25 30 18 21 8 6 7 9 15 54 35 33 42 55 48 45 29 30 6 11 6 11 10 8 15 5 16 12 11 14 10
64 65 65 66 68 69 70 71 71 73 71 71 63 60 41 31 36 25 17 18 18 2 12 7 10 14 25 32 39 60 45 45 29 14 9 14 21 7 6 15 13 6 7 13 10 6 6
66 67 68 68 69 70 71 73 74 75 76 72 64 62 40 32 31 10 20 30 3 9 12 7 12 18 23 26 24 14 19 15 10 6 9 18 8 9 18 7 11 10 7 5 8 2 16
68 69 70 71 71 71 72 74 76 77 78 77 65 58 35 31 24 26 20 3 11 20 22 10 24 48 27 31 31 39 24 16 21 13 3 3 11 4 11 10 7 3 14 10 6 6 12
69 70 71 72 72 72 73 75 78 78 79 83 67 50 23 4 21 19 3 7 9 12 12 7 16 30 30 28 22 41 16 16 10 17 8 3 7 19 14 11 13 5 5 9 4 9 9
70 71 71 72 73 73 74 74 79 79 77 79 70 32 17 10 14 25 2 12 17 28 17 16 18 23 21 23 11 15 6 5 14 13 15 5 5 5 12 11 3 10 6 9 7 3 11
69 69 70 72 73 73 72 73 73 81 74 71 44 20 15 27 19 17 8 14 25 43 16 12 17 26 29 45 19 9 12 17 9 13 16 10 10 10 15 9 12 2 3 8 8 7 5
67 68 69 70 71 71 71 71 70 76 76 66 24 7 11 24 5 11 11 22 45 40 12 17 24 33 13 15 12 14 1 9 30 21 11 4 7 1 11 14 13 18 10 10 9 12 2
63 63 64 66 67 69 68 68 66 64 75 72 47 13 17 12 7 10 15 27 22 19 19 6 8 22 12 4 5 9 9 20 26 14 6 5 3 5 16 16 11 8 7 5 2 6 6
63 62 61 62 65 67 67 65 66 57 58 50 15 8 19 21 22 12 14 14 19 13 4 5 4 18 11 5 7 5 10 9 26 17 23 17 5 8 11 8 6 11 11 11 12 5 9
65 64 62 61 63 65 64 65 66 60 48 27 10 9 20 9 15 26 17 10 16 20 13 15 10 18 28 5 2 3 9 13 20 29 9 11 7 3 8 12 27 22 21 20 13 19 17
67 64 62 59 59 60 59 60 63 62 48 23 15 15 18 28 29 17 16 14 16 13 18 8 9 28 10 9 12 7 12 12 2 5 8 4 5 5 11 16 21 28 24 21 24 24 17
65 62 59 54 52 53 54 52 54 59 57 21 30 19 18 22 12 14 13 16 17 16 16 28 5 9 19 14 11 27 25 13 5 3 8 14 11 9 14 19 19 17 10 13 16 19 10
62 57 53 50 50 50 48 49 45 49 53 49 35 20 14 10 15 19 24 24 21 13 10 21 28 10 14 18 21 22 28 20 23 23 24 13 12 9 9 10 17 10 28 17 9 28 30
59 55 51 51 51 52 50 46 44 41 44 49 41 8 14 11 24 25 29 21 34 30 14 23 17 11 16 8 5 6 6 8 12 12 16 11 8 4 6 2 10 11 16 15 25 12 31
59 56 53 52 53 53 51 44 41 41 42 44 24 7 17 16 5 39 23 27 8 12 14 35 31 26 22 5 4 6 6 9 7 8 13 19 10 9 5 7 10 8 30 47 25 6 30
59 56 54 52 51 52 46 41 38 39 39 42 20 4 5 14 19 44 15 15 32 29 7 8 30 9 14 4 6 6 8 6 7 7 8 6 8 4 2 4 3 10 36 34 7 6 33
59 58 54 52 47 48 43 40 37 37 38 35 18 13 11 12 31 21 24 26 25 30 7 27 19 19 11 10 7 8 9 6 8 15 8 8 5 3 2 7 7 13 7 6 2 15 20
61 58 55 52 45 43 41 37 37 37 37 37 27 7 8 24 22 23 5 11 16 16 15 14 12 24 17 8 8 7 4 8 8 5 11 5 5 3 1 5 5 6 4 5 13 22 25
Wind_Direction_500mb
13 11 9 6 2 358 353 348 345 341 337 337 339 338 334 329 324 314 305 293 283 277 274 277 286 291 300 283 259 275 263 209 203 207 189 196 231 212 218 232 245 212 232 231 246 258 260
14 11 9 6 4 2 360 356 350 345 340 336 336 337 334 329 324 316 306 296 285 276 275 280 286 289 293 258 253 197 228 213 207 191 189 213 231 218 225 235 229 242 224 231 244 254 253
11 9 7 5 3 2 0 358 355 350 345 339 332 331 333 329 324 318 308 297 287 280 277 280 280 283 273 255 211 266 210 211 206 185 203 233 249 250 234 278 263 269 276 225 249 244 221
7 5 4 3 2 1 359 357 355 352 349 342 333 327 328 328 325 316 304 294 286 284 282 278 275 272 258 232 210 209 220 179 190 213 225 243 259 276 298 284 310 277 302 253 253 242 230
5 4 2 0 360 359 358 356 354 352 349 345 337 326 320 323 324 316 304 292 287 285 287 273 254 232 262 197 208 198 224 214 208 238 242 261 257 251 277 278 310 260 222 234 248 204 188
5 3 2 360 359 358 356 356 354 352 350 346 340 328 313 311 316 313 305 293 284 281 266 242 191 269 245 206 198 205 219 222 186 212 215 222 225 227 268 224 233 234 228 247 208 149 156
4 2 1 360 358 357 355 355 354 351 349 347 341 332 315 300 302 302 297 297 280 226 210 217 209 219 300 189 189 198 207 229 220 205 210 197 169 222 227 228 242 281 336 277 127 129 123
2 1 360 359 357 356 355 354 352 351 348 346 344 335 319 297 291 291 285 267 252 300 274 270 251 250 269 212 182 182 196 217 225 213 219 213 227 230 221 72 0 330 335 19 119 144 138
0 359 358 357 355 354 354 353 352 350 348 344 343 336 320 303 283 285 279 263 296 306 296 285 256 236 249 200 187 180 192 217 224 226 227 220 189 71 53 332 307 317 27 14 29 352 66
357 357 357 356 355 353 351 350 350 349 347 342 341 336 323 306 285 263 250 329 285 301 290 265 228 235 243 202 206 184 191 212 225 234 244 218 131 126 155 268 292 52 23 11 1 31 236
353 353 353 353 353 352 350 347 346 347 345 341 337 332 320 296 257 256 248 305 312 320 295 319 234 207 195 189 222 173 190 214 243 262 276 85 359 130 207 107 64 11 28 7 345 321 352
351 351 351 351 350 350 349 347 343 343 344 339 336 329 313 289 263 256 282 321 320 150 248 274 256 177 179 195 210 172 187 210 248 293 312 302 145 160 178 95 99 46 26 323 288 220 323
348 348 348 348 348 348 347 346 343 340 342 338 333 326 303 265 258 233 314 283 308 222 161 262 266 179 214 209 184 198 178 214 195 249 227 261 215 183 118 81 326 134 115 325 334 328 230
346 346 346 346 346 346 346 346 343 339 339 338 331 326 300 273 253 245 301 319 225 235 244 10 360 326 309 212 209 186 180 196 217 216 320 4 324 240 136 155 108 341 158 165 247 279 275
344 344 344 344 344 344 345 345 343 340 339 340 334 333 303 283 204 189 289 248 232 257 127 78 13 307 291 232 143 259 190 206 225 173 176 273 236 68 109 94 103 358 346 214 72 308 351
342 342 342 342 342 343 344 345 343 341 338 344 339 337 293 138 150 185 181 243 283 297 143 128 147 261 292 310 221 173 205 209 219 96 116 98 74 106 104 75 297 188 248 18 347 207 271
341 341 341 341 342 342 342 344 346 340 338 345 346 324 101 153 147 186 219 254 261 267 44 172 177 189 272 294 61 326 262 258 202 104 89 74 101 302 109 166 202 138 255 232 146 151 197
341 341 341 341 342 342 342 343 348 344 340 344 1 308 201 172 150 217 225 246 263 280 203 176 239 214 231 295 337 351 121 72 58 122 102 75 111 66 248 300 310 207 164 121 111 300 339
339 340 342 342 342 343 344 342 345 352 348 339 331 273 190 197 247 265 264 258 301 23 18 122 284 294 279 338 341 307 4 97 81 63 71 37 54 36 337 332 321 26 46 28 136 139 215
335 336 339 341 341 343 345 344 343 347 350 334 320 321 350 338 9 7 1 342 336 344 88 75 296 326 302 282 250 2 339 114 123 114 122 101 112 149 191 252 300 298 275 237 192 163 233
330 330 331 334 337 339 343 345 346 349 354 357 358 345 18 329 341 317 297 313 307 307 294 64 9 297 306 264 165 280 297 278 109 143 84 102 167 248 287 292 304 298 301 302 234 221 221
331 329 329 330 332 334 338 342 350 355 3 50 24 358 334 298 298 309 303 259 281 360 11 49 47 292 301 36 17 322 52 24 24 283 107 85 187 214 274 277 279 285 286 280 282 288 277
333 332 333 332 333 333 337 338 348 357 6 15 347 332 313 287 311 312 342 340 5 8 337 337 350 341 25 358 337 332 335 164 153 172 176 145 170 186 239 246 268 278 272 290 331 24 13
338 341 341 340 338 335 334 339 342 350 1 356 350 336 295 303 318 341 6 12 351 359 339 326 316 2 22 0 359 347 329 318 192 253 169 173 200 190 226 261 263 290 14 8 22 45 23
344 345 343 342 340 337 332 336 341 339 345 353 351 313 317 315 324 341 357 335 332 351 331 244 103 84 360 32 55 340 298 286 285 278 45 62 120 100 99 341 302 331 10 2 339 43 18
344 343 340 339 339 338 338 339 337 338 338 349 3 20 291 293 279 325 354 2 348 356 342 24 26 30 36 4 42 225 240 271 249 108 67 54 39 115 141 143 232 353 340 338 332 245 9
343 341 339 336 338 342 342 340 334 337 337 344 352 323 351 293 291 343 7 6 6 6 330 35 343 331 33 346 307 262 268 287 297 129 300 348 31 308 79 180 153 352 320 306 256 294 344
341 344 341 338 337 340 339 340 334 335 337 342 26 36 284 295 291 338 12 17 6 11 10 331 345 6 6 26 24 356 33 12 80 47 11 54 328 352 276 250 228 332 360 11 239 310 310
343 344 342 340 337 336 340 336 334 332 330 330 337 276 222 255 255 321 345 25 24 17 3 347 57 23 18 30 14 4 312 22 63 72 39 58 14 328 42 280 164 258 214 324 308 291 301
Wind_Speed_850mb
47 49 50 50 49 49 48 46 45 43 42 42 42 39 35 31 27 24 22 20 20 21 23 23 22 22 23 19 39 25 12 8 16 25 39 30 31 39 18 20 36 17 22 56 64 56 17
50 51 52 52 53 52 52 50 48 46 43 41 40 39 35 30 26 23 21 18 18 19 21 22 21 21 21 17 8 7 15 14 19 32 39 30 34 41 43 35 15 32 48 48 48 36 22
52 53 55 56 57 57 57 56 54 51 47 43 39 37 35 31 26 23 20 19 19 19 19 20 20 22 29 49 18 9 17 14 18 40 26 20 40 38 40 15 39 33 9 12 11 36 16
55 56 56 58 59 60 60 59 58 56 52 46 40 36 34 32 26 22 20 19 18 19 19 20 22 23 24 8 29 26 3 14 15 13 23 25 30 27 19 28 35 11 8 8 17 20 17
56 57 58 59 60 62 63 62 60 59 56 51 45 37 32 30 28 24 21 20 20 21 23 19 12 12 25 14 27 43 18 30 31 27 24 16 7 17 27 9 13 10 14 20 22 26 14
57 58 59 61 62 63 63 64 62 61 59 56 50 40 32 28 26 25 24 23 24 22 14 8 14 12 34 34 28 33 27 31 29 23 26 18 11 7 10 3 15 14 18 18 17 10 13
58 59 60 61 63 64 64 64 64 62 60 58 52 44 33 29 27 27 26 24 11 9 25 30 23 30 15 30 30 28 30 28 31 32 16 34 8 17 29 28 21 13 18 10 24 14 10
58 59 59 61 62 64 65 66 66 64 62 60 55 47 37 30 29 29 31 24 26 26 27 35 53 52 56 25 33 34 36 28 25 17 18 8 20 34 27 7 11 16 12 15 19 14 12
59 60 60 61 62 63 66 68 67 66 66 62 58 49 38 31 30 32 31 35 22 15 22 53 50 50 58 42 31 42 43 48 17 20 23 19 15 12 14 11 8 5 12 16 8 14 6
60 61 62 63 63 64 65 68 69 68 66 65 59 53 39 30 28 25 33 7 25 19 9 14 44 59 53 33 20 52 47 47 19 31 27 14 17 11 4 10 5 6 17 18 18 13 1
61 62 63 64 66 66 66 68 70 71 69 67 62 57 40 28 25 30 18 21 8 6 7 9 15 54 35 33 42 55 48 45 29 30 6 11 6 11 10 8 15 5 16 12 11 14 10
64 65 65 66 68 69 70 71 71 73 71 71 63 60 41 31 36 25 17 18 18 2 12 7 10 14 25 32 39 60 45 45 29 14 9 14 21 7 6 15 13 6 7 13 10 6 6
66 67 68 68 69 70 71 73 74 75 76 72 64 62 40 32 31 10 20 30 3 9 12 7 12 18 23 26 24 14 19 15 10 6 9 18 8 9 18 7 11 10 7 5 8 2 16
68 69 70 71 71 71 72 74 76 77 78 77 65 58 35 31 24 26 20 3 11 20 22 10 24 48 27 31 31 39 24 16 21 13 3 3 11 4 11 10 7 3 14 10 6 6 12
69 70 71 72 72 72 73 75 78 78 79 83 67 50 23 4 21 19 3 7 9 12 12 7 16 30 30 28 22 41 16 16 10 17 8 3 7 19 14 11 13 5 5 9 4 9 9
70 71 71 72 73 73 74 74 79 79 77 79 70 32 17 10 14 25 2 12 17 28 17 16 18 23 21 23 11 15 6 5 14 13 15 5 5 5 12 11 3 10 6 9 7 3 11
69 69 70 72 73 73 72 73 73 81 74 71 44 20 15 27 19 17 8 14 25 43 16 12 17 26 29 45 19 9 12 17 9 13 16 10 10 10 15 9 12 2 3 8 8 7 5
67 68 69 70 71 71 71 71 70 76 76 66 24 7 11 24 5 11 11 22 45 40 12 17 24 33 13 15 12 14 1 9 30 21 11 4 7 1 11 14 13 18 10 10 9 12 2
63 63 64 66 67 69 68 68 66 64 75 72 47 13 17 12 7 10 15 27 22 19 19 6 8 22 12 4 5 9 9 20 26 14 6 5 3 5 16 16 11 8 7 5 2 6 6
63 62 61 62 65 67 67 65 66 57 58 50 15 8 19 21 22 12 14 14 19 13 4 5 4 18 11 5 7 5 10 9 26 17 23 17 5 8 11 8 6 11 11 11 12 5 9
65 64 62 61 63 65 64 65 66 60 48 27 10 9 20 9 15 26 17 10 16 20 13 15 10 18 28 5 2 3 9 13 20 29 9 11 7 3 8 12 27 22 21 20 13 19 17
67 64 62 59 59 60 59 60 63 62 48 23 15 15 18 28 29 17 16 14 16 13 18 8 9 28 10 9 12 7 12 12 2 5 8 4 5 5 11 16 21 28 24 21 24 24 17
65 62 59 54 52 53 54 52 54 59 57 21 30 19 18 22 12 14 13 16 17 16 16 28 5 9 19 14 11 27 25 13 5 3 8 14 11 9 14 19 19 17 10 13 16 19 10
62 57 53 50 50 50 48 49 45 49 53 49 35 20 14 10 15 19 24 24 21 13 10 21 28 10 14 18 21 22 28 20 23 23 24 13 12 9 9 10 17 10 28 17 9 28 30
59 55 51 51 51 52 50 46 44 41 44 49 41 8 14 11 24 25 29 21 34 30 14 23 17 11 16 8 5 6 6 8 12 12 16 11 8 4 6 2 10 11 16 15 25 12 31
59 56 53 52 53 53 51 44 41 41 42 44 24 7 17 16 5 39 23 27 8 12 14 35 31 26 22 5 4 6 6 9 7 8 13 19 10 9 5 7 10 8 30 47 25 6 30
59 56 54 52 51 52 46 41 38 39 39 42 20 4 5 14 19 44 15 15 32 29 7 8 30 9 14 4 6 6 8 6 7 7 8 6 8 4 2 4 3 10 36 34 7 6 33
59 58 54 52 47 48 43 40 37 37 38 35 18 13 11 12 31 21 24 26 25 30 7 27 19 19 11 10 7 8 9 6 8 15 8 8 5 3 2 7 7 13 7 6 2 15 20
61 58 55 52 45 43 41 37 37 37 37 37 27 7 8 24 22 23 5 11 16 16 15 14 12 24 17 8 8 7 4 8 8 5 11 5 5 3 1 5 5 6 4 5 13 22 25
Wind_Direction_850mb
13 11 9 6 2 358 353 348 345 341 337 337 339 338 334 329 324 314 305 293 283 277 274 277 286 291 300 283 259 275 263 209 203 207 189 196 231 212 218 232 245 212 232 231 246 258 260
14 11 9 6 4 2 360 356 350 345 340 336 336 337 334 329 324 316 306 296 285 276 275 280 286 289 293 258 253 197 228 213 207 191 189 213 231 218 225 235 229 242 224 231 244 254 253
11 9 7 5 3 2 0 358 355 350 345 339 332 331 333 329 324 318 308 297 287 280 277 280 280 283 273 255 211 266 210 211 206 185 203 233 249 250 234 278 263 269 276 225 249 244 221
7 5 4 3 2 1 359 357 355 352 349 342 333 327 328 328 325 316 304 294 286 284 282 278 275 272 258 232 210 209 220 179 190 213 225 243 259 276 298 284 310 277 302 253 253 242 230
5 4 2 0 360 359 358 356 354 352 349 345 337 326 320 323 324 316 304 292 287 285 287 273 254 232 262 197 208 198 224 214 208 238 242 261 257 251 277 278 310 260 222 234 248 204 188
5 3 2 360 359 358 356 356 354 352 350 346 340 328 313 311 316 313 305 293 284 281 266 242 191 269 245 206 198 205 219 222 186 212 215 222 225 227 268 224 233 234 228 247 208 149 156
4 2 1 360 358 357 355 355 354 351 349 347 341 332 315 300 302 302 297 297 280 226 210 217 209 219 300 189 189 198 207 229 220 205 210 197 169 222 227 228 242 281 336 277 127 129 123
2 1 360 359 357 356 355 354 352 351 348 346 344 335 319 297 291 291 285 267 252 300 274 270 251 250 269 212 182 182 196 217 225 213 219 213 227 230 221 72 0 330 335 19 119 144 138
0 359 358 357 355 354 354 353 352 350 348 344 343 336 320 303 283 285 279 263 296 306 296 285 256 236 249 200 187 180 192 217 224 226 227 220 189 71 53 332 307 317 27 14 29 352 66
357 357 357 356 355 353 351 350 350 349 347 342 341 336 323 306 285 263 250 329 285 301 290 265 228 235 243 202 206 184 191 212 225 234 244 218 131 126 155 268 292 52 23 11 1 31 236
353 353 353 353 353 352 350 347 346 347 345 341 337 332 320 296 257 256 248 305 312 320 295 319 234 207 195 189 222 173 190 214 243 262 276 85 359 130 207 107 64 11 28 7 345 321 352
351 351 351 351 350 350 349 347 343 343 344 339 336 329 313 289 263 256 282 321 320 150 248 274 256 177 179 195 210 172 187 210 248 293 312 302 145 160 178 95 99 46 26 323 288 220 323
348 348 348 348 348 348 347 346 343 340 342 338 333 326 303 265 258 233 314 283 308 222 161 262 266 179 214 209 184 198 178 214 195 249 227 261 215 183 118 81 326 134 115 325 334 328 230
346 346 346 346 346 346 346 346 343 339 339 338 331 326 300 273 253 245 301 319 225 235 244 10 360 326 309 212 209 186 180 196 217 216 320 4 324 240 136 155 108 341 158 165 247 279 275
344 344 344 344 344 344 345 345 343 340 339 340 334 333 303 283 204 189 289 248 232 257 127 78 13 307 291 232 143 259 190 206 225 173 176 273 236 68 109 94 103 358 346 214 72 308 351
342 342 342 342 342 343 344 345 343 341 338 344 339 337 293 138 150 185 181 243 283 297 143 128 147 261 292 310 221 173 205 209 219 96 116 98 74 106 104 75 297 188 248 18 347 207 271
341 341 341 341 342 342 342 344 346 340 338 345 346 324 101 153 147 186 219 254 261 267 44 172 177 189 272 294 61 326 262 258 202 104 89 74 101 302 109 166 202 138 255 232 146 151 197
341 341 341 341 342 342 342 343 348 344 340 344 1 308 201 172 150 217 225 246 263 280 203 176 239 214 231 295 337 351 121 72 58 122 102 75 111 66 248 300 310 207 164 121 111 300 339
339 340 342 342 342 343 344 342 345 352 348 339 331 273 190 197 247 265 264 258 301 23 18 122 284 294 279 338 341 307 4 97 81 63 71 37 54 36 337 332 321 26 46 28 136 139 215
335 336 339 341 341 343 345 344 343 347 350 334 320 321 350 338 9 7 1 342 336 344 88 75 296 326 302 282 250 2 339 114 123 114 122 101 112 149 191 252 300 298 275 237 192 163 233
330 330 331 334 337 339 343 345 346 349 354 357 358 345 18 329 341 317 297 313 307 307 294 64 9 297 306 264 165 280 297 278 109 143 84 102 167 248 287 292 304 298 301 302 234 221 221
331 329 329 330 332 334 338 342 350 355 3 50 24 358 334 298 298 309 303 259 281 360 11 49 47 292 301 36 17 322 52 24 24 283 107 85 187 214 274 277 279 285 286 280 282 288 277
333 332 333 332 333 333 337 338 348 357 6 15 347 332 313 287 311 312 342 340 5 8 337 337 350 341 25 358 337 332 335 164 153 172 176 145 170 186 239 246 268 278 272 290 331 24 13
338 341 341 340 338 335 334 339 342 350 1 356 350 336 295 303 318 341 6 12 351 359 339 326 316 2 22 0 359 347 329 318 192 253 169 173 200 190 226 261 263 290 14 8 22 45 23
344 345 343 342 340 337 332 336 341 339 345 353 351 313 317 315 324 341 357 335 332 351 331 244 103 84 360 32 55 340 298 286 285 278 45 62 120 100 99 341 302 331 10 2 339 43 18
344 343 340 339 339 338 338 339 337 338 338 349 3 20 291 293 279 325 354 2 348 356 342 24 26 30 36 4 42 225 240 271 249 108 67 54 39 115 141 143 232 353 340 338 332 245 9
343 341 339 336 338 342 342 340 334 337 337 344 352 323 351 293 291 343 7 6 6 6 330 35 343 331 33 346 307 262 268 287 297 129 300 348 31 308 79 180 153 352 320 306 256 294 344
341 344 341 338 337 340 339 340 334 335 337 342 26 36 284 295 291 338 12 17 6 11 10 331 345 6 6 26 24 356 33 12 80 47 11 54 328 352 276 250 228 332 360 11 239 310 310
343 344 342 340 337 336 340 336 334 332 330 330 337 276 222 255 255 321 345 25 24 17 3 347 57 23 18 30 14 4 312 22 63 72 39 58 14 328 42 280 164 258 214 324 308 291 301